Terminal Aerodrome Forecast
Issued by NWS

Home | Current Version | Previous Version | Text Only | Print | Product List | Glossary On
Versions: 1 2 3 4 5 6 7 8 9 10 11 12 13 14 15
000
FTUS43 KICT 280500
TAFSLN
TAF
KSLN 280520Z 2806/2906 VRB04KT P6SM SKC
     FM281500 05007KT P6SM SCT100
     FM290300 10005KT P6SM SCT100=

USA.gov is the U.S. government's official web portal to all federal, state and local government web resources and services.